FW5818 Weather Reports


Display with metric or nautical units.
time (UTC)temp
F
wind
direction
speed
MPH
gust
MPH
rain 1hr
in
rain 24hr
in
rain mn
in
humidity
%
barometer
mb
20240229111539 33 0 0.0 0.0 0.00 0.00 0.00 70 1031.3
20240229110042 33 0 0.0 0.0 0.00 0.00 0.00 70 1031.3
20240229104547 33 33 0.0 2.0 0.00 0.00 0.00 70 1031.2
20240229103044 33 0 0.0 2.0 0.00 0.00 0.00 70 1030.8
20240229101548 33 31 0.0 2.0 0.00 0.00 0.00 71 1030.8
20240229100045 31 31 0.0 3.0 0.00 0.00 0.00 74 1030.9
20240229094544 30 360 0.0 2.0 0.00 0.00 0.00 82 1031.3
20240229093039 30 0 0.0 0.0 0.00 0.00 0.00 80 1031.3
20240229091545 30 0 0.0 0.0 0.00 0.00 0.00 80 1031.4
20240229090043 30 0 0.0 0.0 0.00 0.00 0.00 79 1031.5
20240229084542 30 0 0.0 0.0 0.00 0.00 0.00 78 1031.5
20240229083044 31 0 0.0 0.0 0.00 0.00 0.00 75 1031.5
20240229081543 32 0 0.0 0.0 0.00 0.00 0.00 71 1031.3
20240229080039 32 0 0.0 0.0 0.00 0.00 0.00 71 1031.4
20240229074547 33 0 0.0 0.0 0.00 0.00 0.00 73 1031.2
20240229073038 34 0 0.0 0.0 0.00 0.00 0.00 70 1031.0
20240229071537 34 0 0.0 0.0 0.00 0.00 0.00 69 1030.9
20240229070036 35 0 0.0 1.0 0.00 0.00 0.00 70 1031.0
20240229064536 35 0 0.0 0.0 0.00 0.00 0.00 69 1030.8
20240229063043 35 0 0.0 0.0 0.00 0.00 0.00 68 1030.8
20240229061543 36 0 0.0 0.0 0.00 0.00 0.00 68 1030.8
20240229060046 36 0 0.0 0.0 0.00 0.00 0.00 65 1030.6
20240229054551 36 0 0.0 0.0 0.00 0.00 0.00 64 1030.4
20240229053039 36 0 0.0 0.0 0.00 0.00 0.00 68 1030.3
20240229051541 36 0 0.0 0.0 0.00 0.00 0.00 64 1030.3
20240229050045 37 0 0.0 0.0 0.00 0.00 0.00 66 1030.2
20240229044553 37 0 0.0 0.0 0.00 0.00 0.00 64 1030.2
20240229043046 37 0 0.0 0.0 0.00 0.00 0.00 64 1030.3
20240229041546 38 0 0.0 0.0 0.00 0.00 0.00 56 1030.0
20240229040048 38 0 0.0 0.0 0.00 0.00 0.00 63 1030.3
20240229034541 38 0 0.0 0.0 0.00 0.00 0.00 63 1030.3
20240229033035 38 0 0.0 0.0 0.00 0.00 0.00 60 1029.9
20240229031552 38 0 0.0 0.0 0.00 0.00 0.00 55 1029.7
20240229030050 39 0 0.0 0.0 0.00 0.00 0.00 54 1029.8
20240229024545 39 0 0.0 0.0 0.00 0.00 0.00 54 1029.6
20240229023053 39 0 0.0 1.0 0.00 0.00 0.00 54 1029.7
20240229021554 40 0 0.0 1.0 0.00 0.00 0.00 50 1029.6
20240229020040 40 0 0.0 1.0 0.00 0.00 0.00 50 1029.6
20240229014546 40 0 0.0 1.0 0.00 0.00 0.00 48 1029.6
20240229013048 41 0 0.0 1.0 0.00 0.00 0.00 49 1029.9
20240229011541 41 0 0.0 2.0 0.00 0.00 0.00 49 1029.8
20240229010036 42 0 0.0 1.0 0.00 0.00 0.00 47 1029.5
20240229004537 43 0 0.0 4.0 0.00 0.00 0.00 46 1029.7
20240229003036 43 0 0.0 1.0 0.00 0.00 0.00 44 1029.5
20240229001533 44 0 0.0 3.0 0.00 0.00 0.00 42 1029.5
20240229000042 45 0 0.0 2.0 0.00 0.00 0.00 42 1029.0
20240228234535 46 0 0.0 6.0 0.00 0.00 0.00 37 1028.7
20240228233036 47 12 1.0 8.0 0.00 0.00 0.00 31 1028.9
20240228231540 47 94 1.0 5.0 0.00 0.00 0.00 30 1028.2
20240228230038 48 0 1.0 6.0 0.00 0.00 0.00 28 1028.2
20240228225106 48 344 1.0 9.0 0.00 0.00 0.00 29 1028.3
20240228223125 48 10 2.0 6.0 0.00 0.00 0.00 33 1028.2
20240228221553 48 318 3.0 10.0 0.00 0.00 0.00 29 1028.2
20240228220048 49 18 3.0 13.0 0.00 0.00 0.00 27 1028.0
20240228214547 49 360 5.0 12.0 0.00 0.00 0.00 29 1027.6
20240228213117 48 333 2.0 8.0 0.00 0.00 0.00 31 1027.6
20240228211537 48 294 3.0 9.0 0.00 0.00 0.00 30 1027.6
20240228210035 48 24 5.0 14.0 0.00 0.00 0.00 33 1027.4
20240228204542 48 285 3.0 10.0 0.00 0.00 0.00 34 1027.6
20240228203036 48 36 3.0 14.0 0.00 0.00 0.00 33 1027.5
20240228201536 48 71 3.0 13.0 0.00 0.00 0.00 31 1027.3
20240228200050 49 79 4.0 15.0 0.00 0.00 0.00 30 1027.1
20240228194533 50 57 7.0 16.0 0.00 0.00 0.00 31 1026.9
20240228193039 50 346 6.0 20.0 0.00 0.00 0.00 32 1026.8
20240228191540 51 279 4.0 18.0 0.00 0.00 0.00 32 1026.6
20240228190037 51 70 7.0 17.0 0.00 0.00 0.00 29 1026.6
20240228184534 51 329 8.0 20.0 0.00 0.00 0.00 35 1026.5
20240228183039 49 293 6.0 15.0 0.00 0.00 0.00 40 1026.3
20240228180132 47 36 6.0 14.0 0.00 0.00 0.00 44 1026.2
20240228174604 47 257 8.0 23.0 0.00 0.00 0.00 44 1025.8
20240228173112 47 275 6.0 17.0 0.00 0.00 0.00 47 1025.7
20240228171540 46 346 3.0 18.0 0.00 0.00 0.00 52 1025.4
20240228170046 46 352 5.0 15.0 0.00 0.00 0.00 53 1025.2
20240228164543 45 5 7.0 18.0 0.00 0.00 0.00 53 1024.6
20240228163046 45 17 6.0 22.0 0.00 0.00 0.00 55 1024.2
20240228161550 44 277 8.0 17.0 0.00 0.00 0.00 56 1024.1
20240228160038 44 44 5.0 18.0 0.00 0.00 0.00 58 1023.8
20240228154543 44 40 5.0 15.0 0.00 0.00 0.00 58 1023.2
20240228153114 44 283 7.0 18.0 0.00 0.00 0.00 61 1022.7
20240228151548 44 321 5.0 17.0 0.00 0.00 0.00 63 1021.7
20240228150057 44 310 5.0 14.0 0.00 0.00 0.00 63 1021.5
20240228144542 45 360 6.0 17.0 0.00 0.00 0.00 62 1020.9
20240228143049 45 291 8.0 17.0 0.00 0.00 0.00 61 1020.2
20240228141537 46 333 4.0 14.0 0.00 0.00 0.00 61 1019.5
20240228140051 47 51 6.0 17.0 0.00 0.00 0.00 60 1018.8
20240228134544 47 325 5.0 18.0 0.00 0.00 0.00 59 1017.9
20240228133043 47 5 8.0 17.0 0.00 0.00 0.00 59 1016.8
20240228131541 47 40 4.0 15.0 0.00 0.00 0.00 60 1016.5
20240228130056 48 22 4.0 18.0 0.00 0.00 0.00 58 1015.9
20240228124540 48 17 8.0 17.0 0.00 0.00 0.00 58 1015.4
20240228123042 48 339 3.0 22.0 0.00 0.00 0.00 60 1014.9
20240228121543 49 331 4.0 15.0 0.00 0.00 0.00 59 1014.4
20240228120041 49 323 7.0 18.0 0.00 0.00 0.00 58 1014.3
20240228114554 50 5 5.0 20.0 0.00 0.00 0.00 57 1013.5
20240228113039 52 62 7.0 21.0 0.00 0.00 0.00 60 1013.0